P/2018 L5 ( Leonard )

Japanese version
Home page
Updated on May 20, 2019

---------------------------------------------------------------------

* Profile

Discovery Date June 14, 2018
Magnitude 18.5 mag
Discoverer G. J. Leonard (Mount Lemmon)

* Pictures

* Orbital Elements

Epoch 2018 May 2.0 TT = JDT 2458240.5
T 2018 May 4.45952 TT                                   MPCW
q   2.3032737            (2000.0)            P               Q
n   0.14284853     Peri.   93.62774     +0.67882267     +0.73389867
a   3.6242560      Node   219.16053     -0.68808616     +0.62417407
e   0.3644837      Incl.    2.20910     -0.25639270     +0.26795424
P   6.90
From 181 observations 2018 June 8-Dec. 14, mean residual 0".5.

* Magnitudes Graph

        m1 = 13.5 + 5 log d + 10.0 log r

---------------------------------------------------------------------

The orbital elements are published on M.P.E.C. 2019-J142.
The magnitudes graphs are made with Comet for Windows.

---------------------------------------------------------------------

Copyright(C) Seiichi Yoshida (comet@aerith.net). All rights reserved.